When you browse on this site, cookies collect data to enhance your experience and personalize the content and advertising you see.
Visit our Privacy Policy to learn more. By continuing to use the site, you agree to this use of cookies and data.
  • In Austria
  • List of Countries
  • For 7 days
  • Water Temperature
  • Weather Map
  • News
  • Weather Widgets
  • user-avatar
    Login

    Hourly Weather Przemyśl

    Today, 17 October, Thursday

    Time Temperature Precipitation Wind Pressure Humidity
    00:00 +14°C° 0 mm 1 mps 744 mmHg 86%
    01:00 +13°C° 0 mm 1 mps 744 mmHg 87%
    02:00 +12°C° 0 mm 1 mps 745 mmHg 86%
    03:00 +12°C° 0 mm 1 mps 745 mmHg 86%
    04:00 +12°C° 0 mm 1 mps 745 mmHg 86%
    05:00 +12°C° 0 mm 1 mps 745 mmHg 86%
    06:00 +12°C° 0 mm 1 mps 745 mmHg 85%
    07:00 +12°C° 0 mm 1 mps 745 mmHg 83%
    08:00 +13°C° 0 mm 1 mps 746 mmHg 79%
    09:00 +14°C° 0 mm 1 mps 746 mmHg 71%
    10:00 +16°C° 0 mm 1 mps 746 mmHg 63%
    11:00 +19°C° 0 mm 1 mps 746 mmHg 55%
    12:00 +20°C° 0 mm 1 mps 746 mmHg 52%
    13:00 +20°C° 0 mm 1 mps 746 mmHg 50%
    14:00 +21°C° 0 mm 1 mps 745 mmHg 47%
    15:00 +20°C° 0 mm 1 mps 745 mmHg 53%
    16:00 +19°C° 0 mm 1 mps 745 mmHg 58%
    17:00 +18°C° 0 mm 1 mps 745 mmHg 63%
    18:00 +16°C° 0 mm 1 mps 745 mmHg 68%
    19:00 +15°C° 0 mm 1 mps 745 mmHg 72%
    20:00 +14°C° 0 mm 1 mps 745 mmHg 76%
    21:00 +13°C° 0 mm 1 mps 745 mmHg 78%
    22:00 +13°C° 0 mm 1 mps 745 mmHg 79%
    23:00 +13°C° 0 mm 1 mps 745 mmHg 81%

    Tomorrow, 18 October, Friday

    Time Temperature Precipitation Wind Pressure Humidity
    00:00 +13°C° 0 mm 1 mps 745 mmHg 81%
    01:00 +12°C° 0 mm 1 mps 745 mmHg 81%
    02:00 +12°C° 0 mm 1 mps 745 mmHg 81%
    03:00 +12°C° 0 mm 1 mps 745 mmHg 81%
    04:00 +12°C° 0 mm 1 mps 744 mmHg 80%
    05:00 +12°C° 0 mm 1 mps 744 mmHg 80%
    06:00 +12°C° 0 mm 1 mps 744 mmHg 80%
    07:00 +13°C° 0 mm 1 mps 744 mmHg 79%
    08:00 +13°C° 0 mm 1 mps 744 mmHg 79%
    09:00 +15°C° 0 mm 1 mps 744 mmHg 72%
    10:00 +18°C° 0 mm 2 mps 744 mmHg 64%
    11:00 +20°C° 0 mm 2 mps 744 mmHg 57%
    12:00 +21°C° 0 mm 2 mps 744 mmHg 54%
    13:00 +22°C° 0 mm 3 mps 744 mmHg 51%
    14:00 +24°C° 0 mm 3 mps 743 mmHg 48%
    15:00 +23°C° 0 mm 2 mps 743 mmHg 53%
    16:00 +20°C° 0 mm 2 mps 743 mmHg 59%
    17:00 +20°C° 0 mm 1 mps 742 mmHg 65%
    18:00 +19°C° 0 mm 1 mps 742 mmHg 68%
    19:00 +18°C° 0 mm 1 mps 742 mmHg 72%
    20:00 +16°C° 0 mm 1 mps 742 mmHg 75%
    21:00 +15°C° 0 mm 2 mps 742 mmHg 77%
    22:00 +15°C° 0 mm 2 mps 743 mmHg 78%
    23:00 +15°C° 0 mm 2 mps 743 mmHg 79%

    Day after tomorrow, 19 October, Saturday

    Time Temperature Precipitation Wind Pressure Humidity
    00:00 +15°C° 0 mm 2 mps 743 mmHg 79%
    01:00 +15°C° 0 mm 2 mps 743 mmHg 79%
    02:00 +14°C° 0 mm 2 mps 742 mmHg 79%
    03:00 +14°C° 0 mm 2 mps 743 mmHg 80%
    04:00 +14°C° 0 mm 2 mps 743 mmHg 80%
    05:00 +14°C° 0 mm 2 mps 743 mmHg 81%
    06:00 +14°C° 0 mm 2 mps 743 mmHg 80%
    07:00 +14°C° 0 mm 2 mps 743 mmHg 80%
    08:00 +14°C° 0 mm 2 mps 743 mmHg 80%
    09:00 +16°C° 0 mm 3 mps 743 mmHg 72%
    10:00 +18°C° 0 mm 4 mps 743 mmHg 64%
    11:00 +20°C° 0 mm 4 mps 743 mmHg 56%
    12:00 +21°C° 0 mm 4 mps 743 mmHg 53%
    13:00 +21°C° 0 mm 5 mps 743 mmHg 51%
    14:00 +22°C° 0 mm 5 mps 743 mmHg 48%
    15:00 +21°C° 0 mm 4 mps 743 mmHg 53%
    16:00 +20°C° 0 mm 4 mps 742 mmHg 58%
    17:00 +18°C° 0 mm 3 mps 742 mmHg 63%
    18:00 +18°C° 0 mm 3 mps 742 mmHg 65%
    19:00 +17°C° 0 mm 3 mps 743 mmHg 67%
    20:00 +16°C° 0 mm 3 mps 743 mmHg 68%
    21:00 +16°C° 0 mm 3 mps 743 mmHg 69%
    22:00 +14°C° 0 mm 3 mps 743 mmHg 70%
    23:00 +14°C° 0 mm 3 mps 743 mmHg 71%

    20 October, Sunday

    Time Temperature Precipitation Wind Pressure Humidity
    00:00 +14°C° 0 mm 3 mps 743 mmHg 72%
    01:00 +14°C° 0 mm 3 mps 743 mmHg 72%
    02:00 +14°C° 0 mm 3 mps 743 mmHg 72%
    03:00 +14°C° 0 mm 3 mps 743 mmHg 72%
    04:00 +14°C° 0 mm 3 mps 743 mmHg 72%
    05:00 +14°C° 0 mm 3 mps 743 mmHg 72%
    06:00 +14°C° 0 mm 3 mps 743 mmHg 72%
    07:00 +14°C° 0 mm 3 mps 743 mmHg 72%
    08:00 +14°C° 0 mm 3 mps 744 mmHg 72%
    09:00 +17°C° 0 mm 4 mps 744 mmHg 65%
    10:00 +20°C° 0 mm 5 mps 744 mmHg 58%
    11:00 +22°C° 0 mm 6 mps 744 mmHg 52%
    12:00 +22°C° 0 mm 6 mps 744 mmHg 50%
    13:00 +22°C° 0 mm 6 mps 744 mmHg 49%
    14:00 +23°C° 0 mm 6 mps 744 mmHg 48%
    15:00 +22°C° 0 mm 4 mps 744 mmHg 52%
    16:00 +20°C° 0 mm 3 mps 743 mmHg 56%
    17:00 +19°C° 0 mm 2 mps 743 mmHg 60%
    18:00 +18°C° 0 mm 2 mps 743 mmHg 62%
    19:00 +17°C° 0 mm 3 mps 744 mmHg 64%
    20:00 +16°C° 0 mm 3 mps 744 mmHg 67%
    21:00 +16°C° 0 mm 3 mps 744 mmHg 68%
    22:00 +16°C° 0 mm 3 mps 744 mmHg 68%
    23:00 +16°C° 0 mm 3 mps 744 mmHg 69%

    21 October, Monday

    Time Temperature Precipitation Wind Pressure Humidity
    00:00 +16°C° 0 mm 3 mps 744 mmHg 69%
    01:00 +14°C° 0 mm 3 mps 744 mmHg 69%
    02:00 +14°C° 0 mm 3 mps 743 mmHg 69%
    03:00 +14°C° 0 mm 3 mps 743 mmHg 69%
    04:00 +14°C° 0 mm 3 mps 743 mmHg 68%
    05:00 +14°C° 0 mm 4 mps 743 mmHg 68%
    06:00 +15°C° 0 mm 4 mps 743 mmHg 67%
    07:00 +15°C° 0 mm 4 mps 743 mmHg 66%
    08:00 +15°C° 0 mm 4 mps 743 mmHg 65%
    09:00 +17°C° 0 mm 5 mps 743 mmHg 58%
    10:00 +21°C° 0 mm 6 mps 743 mmHg 51%
    11:00 +23°C° 0 mm 7 mps 743 mmHg 44%
    12:00 +23°C° 0 mm 7 mps 743 mmHg 44%
    13:00 +24°C° 0 mm 7 mps 743 mmHg 45%
    14:00 +24°C° 0 mm 7 mps 743 mmHg 45%
    15:00 +23°C° 0 mm 6 mps 743 mmHg 49%
    16:00 +21°C° 0 mm 5 mps 743 mmHg 54%
    17:00 +20°C° 0 mm 3 mps 743 mmHg 58%
    18:00 +19°C° 0 mm 3 mps 743 mmHg 58%
    19:00 +19°C° 0 mm 3 mps 744 mmHg 59%
    20:00 +18°C° 0 mm 4 mps 744 mmHg 59%
    21:00 +18°C° 0 mm 3 mps 744 mmHg 61%
    22:00 +17°C° 0 mm 3 mps 744 mmHg 63%
    23:00 +17°C° 0 mm 2 mps 745 mmHg 65%

    22 October, Tuesday

    Time Temperature Precipitation Wind Pressure Humidity
    00:00 +16°C° 0 mm 2 mps 745 mmHg 69%
    01:00 +16°C° 0 mm 2 mps 745 mmHg 74%
    02:00 +15°C° 0 mm 2 mps 745 mmHg 78%
    03:00 +14°C° 0 mm 2 mps 746 mmHg 82%
    04:00 +14°C° 0 mm 2 mps 746 mmHg 86%
    05:00 +13°C° 0 mm 2 mps 746 mmHg 91%
    06:00 +14°C° 0 mm 2 mps 747 mmHg 91%
    07:00 +14°C° 0 mm 2 mps 747 mmHg 91%
    08:00 +14°C° 0 mm 2 mps 747 mmHg 91%
    09:00 +14°C° 0 mm 2 mps 748 mmHg 87%
    10:00 +15°C° 0 mm 2 mps 748 mmHg 82%
    11:00 +16°C° 0 mm 2 mps 748 mmHg 78%
    12:00 +16°C° 0 mm 3 mps 749 mmHg 75%
    13:00 +17°C° 0 mm 3 mps 749 mmHg 72%
    14:00 +17°C° 0 mm 3 mps 749 mmHg 70%
    15:00 +16°C° 0 mm 3 mps 749 mmHg 72%
    16:00 +16°C° 0 mm 2 mps 749 mmHg 75%
    17:00 +15°C° 0 mm 1 mps 749 mmHg 78%
    18:00 +14°C° 0 mm 1 mps 749 mmHg 82%
    19:00 +13°C° 0 mm 1 mps 749 mmHg 86%
    20:00 +12°C° 0 mm 1 mps 750 mmHg 90%
    21:00 +11°C° 0 mm 1 mps 750 mmHg 91%
    22:00 +11°C° 0 mm 1 mps 750 mmHg 91%
    23:00 +11°C° 0 mm 1 mps 750 mmHg 92%
    Show more